Simultaneous Nadir Overpasses (SNOs) Predictions

Prediction of SNOs between GOES-15 and NPP Satellite Orbit:

Table of predicted SNOs for the next 14.0 days since TLE Epoch: 1/27/2024
Index Date Time (GOES-15) GOES-15 Lat,Lon NPP Lat,Lon Distance(km) Time Diff (sec)
1 01/27/2024 21:33:42 -0.03, 61.68 0.69, 58.37 377.38 80
2 01/28/2024 21:12:18 -0.03, 61.67 -0.34, 62.89 140.70 80
3 01/30/2024 09:34:13 0.03, 61.74 -0.91, 57.60 471.44 80
4 01/31/2024 09:18:08 0.03, 61.72 0.12, 62.13 46.91 80
5 02/02/2024 21:21:12 -0.03, 61.59 -0.01, 61.38 22.74 80
6 02/03/2024 20:59:47 -0.02, 61.58 -0.98, 65.92 494.87 80
7 02/05/2024 09:21:42 -0.02, 61.67 -0.24, 60.63 117.98 80
8 02/06/2024 09:05:38 -0.01, 61.66 0.80, 65.16 399.18 80
9 02/07/2024 21:27:25 0.01, 61.55 0.40, 59.89 189.61 80
10 02/08/2024 21:06:00 0.00, 61.55 -0.64, 64.42 326.93 80
